STARLINK-2471

Last updated on Sat May 08 2021 00:02:04 GMT+0000 (Coordinated Universal Time)

1 48129U 21027AP 21127.58334491 -.00047907 00000-0 -33802-3 0 9994 2 48129 53.0470 191.7317 0002379 23.9747 285.4379 15.73249242 1779

Satellite not in orbit

STARLINK-2471